Flag Weather past 2 weeks in Denver, Colorado, U.S.A.

Now
36 °F

Passing clouds.


Feels Like: 26 °F
Forecast: 24 / 39 °F
Wind: 16 mph from Northeast

Location: Buckley Air Force Base

Current Time: Nov 23, 2014 at 5:32:36 AM

Latest Report: Nov 23, 2014 at 4:58 AM


Visibility: 10 mi

Pressure: 29.65 "Hg

Humidity: 49%

Dew point: 19 °F

Location of DenverLocation

Historic Weather in Denver — Graph

°F

Denver temperature yesterday

Maximum temperature yesterday: 60 °F (at 12:58 PM)
Minimum temperature yesterday: 35 °F (at 12:58 AM)
Average temperature yesterday: 46 °F

Past Weeks' High & Low Weather Summary

 TemperatureHumidityPressure
High67 °F (Nov 9, 1:58 PM)99% (Nov 8, 3:58 AM)30.74 "Hg (Nov 8, 3:58 AM)
Low-8 °F (Nov 13, 2:58 AM)15% (Nov 22, 11:58 AM)29.32 "Hg (Nov 10, 4:58 AM)
Average27 °F58%30.09 "Hg
* Reported Nov 8 3:58 AM — Nov 23 3:58 AM, Denver, Weather by CustomWeather, © 2014

Note: Actual official high and low records may vary slightly from our data, if they occured in-between our weather recording intervals... More about our weather records

Advertising

Denver weather history for previous 24 hours

 ConditionsComfort  
Time TempWeatherWind HumidityBarometerVisibility
3:58 AM
Nov 23
36 °FOvercast.13 mph69%29.62 "Hg10 mi
2:58 AM40 °FMostly cloudy.6 mph53%29.54 "Hg10 mi
1:58 AM40 °FOvercast.6 mph58%29.50 "Hg10 mi
12:58 AM39 °FMostly cloudy.7 mph57%29.46 "Hg10 mi
11:58 PM
Nov 22
43 °FMostly cloudy.6 mph48%29.44 "Hg10 mi
10:58 PM39 °FMostly cloudy.5 mph60%29.47 "Hg10 mi
9:58 PM41 °FPartly cloudy.7 mph53%29.46 "Hg10 mi
8:58 PM45 °FPartly cloudy.5 mph47%29.49 "Hg10 mi
7:58 PM46 °FPassing clouds.6 mph44%29.54 "Hg10 mi
6:58 PM46 °FPassing clouds.13 mph44%29.53 "Hg10 mi
5:58 PM47 °FPassing clouds.3 mph38%29.54 "Hg10 mi
4:58 PM47 °FPassing clouds.10 mph37%29.56 "Hg10 mi
3:58 PM50 °FPartly sunny.8 mph37%29.51 "Hg10 mi
2:58 PM57 °FPartly sunny.No wind23%29.49 "Hg10 mi
1:58 PM58 °FPartly sunny.10 mph19%29.49 "Hg10 mi
12:58 PM60 °FBroken clouds.12 mph17%29.50 "Hg10 mi
11:58 AM60 °FBroken clouds.12 mph15%29.53 "Hg10 mi
10:58 AM56 °FBroken clouds.8 mph17%29.63 "Hg10 mi
9:58 AM55 °FScattered clouds.14 mph19%29.65 "Hg10 mi
8:58 AM48 °FScattered clouds.14 mph24%29.70 "Hg10 mi
7:58 AM42 °FScattered clouds.15 mph34%29.75 "Hg10 mi
6:58 AM40 °FScattered clouds.16 mph35%29.79 "Hg10 mi
5:58 AM40 °FPassing clouds.17 mph36%29.78 "Hg10 mi
Weather by CustomWeather, © 2014

See weather overviewHow to use our weather pages